SCP
0 0 0 0 0 0 0 0 0 0 0 0 0 0 0 0 0 0 0 0 0 0 0 0 -0 -0 -0 -0 -0 -0 0 0 0 0 0 0 0 0 0 0 0 0 0 0 1 0 0 -0 0 1 1 1 1 0
0 0 0 0 0 0 0 0 0 0 0 0 0 0 0 0 0 0 0 0 0 0 0 0 -0 0 -0 -0 0 0 0 0 0 0 0 0 -0 -0 0 0 0 0 0 1 1 0 0 0 0 1 1 0 1 0
0 0 0 0 0 0 0 0 0 0 0 0 0 0 0 0 0 0 0 0 0 0 0 0 0 0 0 0 0 0 0 0 0 0 -0 -0 -0 -0 0 0 0 0 0 1 1 1 1 1 0 0 1 0 -0 -1
0 0 0 0 0 0 0 0 0 0 0 0 0 0 0 0 0 0 0 0 0 0 0 0 0 0 0 -0 -0 0 0 0 0 0 -0 -0 -0 -0 -0 0 0 0 0 1 2 1 1 1 0 0 -0 0 -0 0
0 0 0 0 0 0 0 0 0 0 0 0 0 0 0 0 0 0 -0 0 0 0 0 0 -0 -0 -0 0 -0 -0 0 0 0 -0 -0 -0 -0 0 -0 0 0 0 1 2 2 0 1 0 0 0 0 -0 0 0
0 0 0 0 0 0 0 0 0 0 0 0 0 0 0 0 0 0 0 0 0 0 0 0 0 -0 -0 -0 -0 -0 0 0 0 -0 -0 -0 -0 -0 -0 -0 0 0 2 2 2 0 0 1 0 0 -0 -0 0 0
0 0 0 0 0 0 0 0 0 0 0 0 0 0 0 0 0 0 0 0 0 0 0 0 -0 -0 0 -0 0 0 0 0 0 -0 -0 -0 -0 -0 0 0 -0 0 5 1 1 0 1 0 0 0 0 -0 0 0
0 0 0 0 0 0 0 0 0 0 0 0 0 0 0 0 0 -0 -0 0 0 0 0 0 0 -0 -0 0 0 -0 0 -0 -0 -0 -0 -0 0 0 0 0 -0 -0 1 1 0 0 0 0 0 0 0 0 -0 0
0 0 0 0 0 0 0 0 0 0 0 0 0 0 0 0 0 0 0 0 0 0 0 0 0 -0 0 -0 0 0 -0 0 -0 -0 -0 -0 0 0 0 0 0 1 1 0 0 0 0 0 0 0 -0 -0 -0 0
0 0 0 0 0 0 0 0 0 0 0 0 0 0 0 0 0 0 0 0 0 0 0 0 0 0 -0 0 -0 -0 -0 0 -0 -0 0 0 0 0 0 -0 -0 0 1 1 0 0 0 0 0 -0 -0 0 0 0
0 0 0 0 0 0 0 0 0 0 0 0 0 0 0 0 0 0 0 0 0 0 0 0 0 0 -0 -0 0 0 0 0 -0 -0 0 -0 0 0 0 0 0 0 0 0 0 0 0 0 0 -0 -0 0 0 0
0 0 0 0 0 0 0 0 0 0 0 0 0 0 0 0 0 0 0 0 0 0 0 0 0 0 0 0 0 -0 0 0 0 -0 -0 0 0 0 0 0 0 0 0 0 0 0 0 0 0 0 0 0 0 0
0 0 0 0 0 0 0 0 0 0 0 0 0 0 0 0 0 0 0 0 0 0 0 0 0 0 0 0 0 0 0 0 0 -0 0 -0 0 0 0 0 0 0 0 0 0 0 0 0 0 0 0 0 0 0
0 0 0 0 0 0 0 0 0 0 0 0 0 0 0 0 0 0 0 0 0 0 0 0 0 0 0 0 0 0 0 0 0 0 0 0 -0 -0 0 0 0 0 0 0 0 0 0 0 0 0 0 0 0 0
0 0 0 0 0 0 0 0 0 0 0 0 0 0 0 0 0 0 0 0 0 0 0 0 0 0 0 0 0 0 0 0 0 0 0 0 0 0 0 1 1 0 0 0 0 0 0 0 0 0 0 0 0 0
0 0 0 0 0 0 0 0 0 0 0 0 0 0 0 0 0 0 0 0 -0 0 0 0 0 0 0 0 0 0 0 0 0 0 0 0 1 0 0 1 0 0 0 0 0 0 0 0 0 0 0 0 0 0
0 0 0 0 0 0 0 0 0 0 0 0 0 0 0 0 0 0 0 0 -0 0 0 0 0 0 0 0 0 0 0 0 0 -0 0 1 1 0 0 1 1 1 1 1 1 0 0 0 0 0 0 0 0 0
0 0 0 0 0 0 0 0 0 0 0 0 0 0 0 0 0 -0 -0 -0 0 0 0 0 0 0 0 0 0 0 0 0 0 0 0 0 0 0 0 1 1 1 1 1 0 0 0 0 0 0 0 0 0 0
0 0 0 0 0 0 0 0 0 0 0 0 -0 0 0 0 0 -0 -0 -0 0 0 0 0 0 0 0 0 0 0 0 0 0 0 -0 0 0 0 0 0 1 1 1 1 1 0 1 0 0 0 0 0 0 0
0 0 0 0 0 0 0 0 0 0 0 0 0 0 0 -0 0 -0 -0 -0 0 0 0 0 0 0 0 0 0 0 0 0 0 -0 0 0 0 0 0 0 0 1 1 1 1 0 0 0 0 0 0 0 0 0
0 0 0 0 0 0 0 0 0 0 0 0 0 0 0 0 0 0 0 -0 0 0 0 0 0 0 -0 -0 0 -0 0 0 0 0 0 0 0 0 0 1 1 0 0 0 0 0 0 0 0 0 0 0 0 0
0 0 0 0 0 0 0 0 0 0 0 0 0 0 0 0 0 0 0 0 0 0 0 0 0 0 0 0 0 0 -0 -0 -0 0 0 0 0 0 0 1 1 0 0 0 0 0 0 0 0 0 0 0 0 0
0 0 0 0 0 0 0 0 0 0 0 0 0 0 0 0 0 0 0 0 0 0 0 0 0 0 0 0 0 -0 0 0 0 0 0 0 0 0 0 0 1 0 0 0 0 0 0 0 0 0 0 0 0 0
0 0 0 0 0 0 0 0 0 0 0 0 0 0 0 -0 0 0 0 0 0 0 0 0 0 0 0 0 0 0 0 0 0 0 0 0 0 0 0 0 1 1 0 0 1 0 0 0 0 0 0 0 0 0
0 0 0 0 0 0 0 0 0 0 0 -0 -0 0 0 0 0 0 0 0 0 -0 0 0 0 0 0 0 0 -0 0 0 0 0 0 0 0 0 0 0 0 0 0 0 0 0 0 0 0 0 0 0 0 0
0 0 0 0 0 0 0 0 0 -0 -0 -0 -0 -0 -0 0 0 0 0 0 0 0 0 0 0 0 0 0 0 0 0 0 0 0 0 0 0 0 0 0 0 0 0 0 0 0 0 0 0 0 0 0 0 0
0 0 -0 -0 0 0 0 0 0 0 0 0 -0 -0 0 0 0 0 0 0 0 0 0 0 0 0 0 0 0 0 0 0 0 0 -0 0 0 0 0 0 0 0 0 0 0 0 0 0 0 0 0 0 0 0
0 0 -0 -0 0 -0 0 0 0 0 0 0 0 -0 0 0 0 0 0 0 0 0 0 0 0 0 0 0 0 0 0 0 0 0 0 0 0 0 0 0 0 0 0 0 0 0 0 0 0 0 0 0 0 0
-0 -0 0 0 0 0 0 0 0 0 0 0 0 0 0 0 -0 0 0 0 0 0 0 0 0 0 0 0 0 0 0 0 0 0 0 0 0 0 0 0 0 0 0 0 0 -0 -0 -0 -0 -0 -0 0 0 0
-0 -0 -0 -0 0 -0 -0 0 0 0 0 0 0 -0 0 -0 -0 -0 0 0 0 0 0 0 0 0 0 0 0 0 0 0 0 0 0 0 0 0 0 0 0 0 0 0 -0 0 0 0 0 0 0 0 0 0
0 -0 0 0 0 0 0 0 0 0 0 -0 -0 -0 -0 -0 0 0 0 0 0 0 0 0 0 0 0 0 0 0 0 0 0 0 0 0 0 0 -0 0 0 0 0 0 0 0 0 0 0 0 0 0 0 0
0 0 0 0 0 0 0 -0 0 0 0 0 -0 -0 0 0 0 0 0 0 0 0 0 0 0 0 0 0 0 0 0 0 0 0 0 0 0 0 0 0 -0 -0 -0 -0 -0 0 -0 0 0 0 0 0 0 0
0 0 0 0 0 0 0 0 0 0 0 0 0 0 0 0 0 0 0 0 0 0 0 0 0 0 0 0 0 0 0 0 0 0 0 0 0 0 0 0 0 0 0 0 0 0 0 0 0 0 0 0 0 0
Wind_Speed_500mb
37 33 32 29 28 27 28 27 24 27 28 25 20 17 12 20 28 28 27 32 31 15 51 56 30 39 37 36 14 35 24 21 15 18 16 22 10 10 21 36 40 30 24 25 26 8 8 68 26 9 20 45 48 57
33 30 30 29 29 27 28 27 24 25 26 22 18 17 15 20 22 24 27 27 26 34 49 66 67 57 65 62 56 26 33 54 13 8 13 6 11 11 23 25 38 30 28 16 7 3 61 82 25 29 36 53 54 58
31 29 30 29 28 28 28 26 26 24 24 21 19 17 18 20 22 25 18 18 20 28 55 31 28 26 22 34 44 37 28 14 15 15 9 4 7 9 10 19 32 29 47 14 15 24 31 41 43 47 40 48 63 66
33 31 30 29 29 29 29 26 26 24 23 20 17 14 10 16 23 25 28 22 23 18 12 22 23 49 33 30 39 56 68 53 35 17 6 3 2 1 6 17 31 23 38 24 16 29 37 45 44 54 56 59 58 53
37 35 31 30 30 28 27 27 26 24 22 19 20 17 15 16 17 17 25 29 30 23 13 37 48 28 19 29 34 41 46 44 30 10 9 7 6 5 8 18 31 35 29 20 18 51 20 47 55 57 58 56 56 58
37 35 31 32 30 28 26 26 25 24 21 20 21 20 19 24 21 14 11 18 30 24 14 10 19 18 26 21 31 33 35 25 14 7 12 9 11 7 5 9 29 65 50 26 22 53 58 64 60 56 60 56 53 53
36 34 32 31 29 29 27 26 23 22 19 18 17 18 20 23 30 28 10 3 4 11 12 13 10 14 16 9 6 20 23 15 15 11 13 6 9 6 9 12 28 87 7 66 80 80 60 63 64 60 58 55 53 50
35 33 31 29 28 28 27 26 23 20 16 18 18 18 18 22 28 42 44 20 11 18 16 8 7 9 23 12 9 10 12 14 13 10 5 7 13 19 12 24 76 74 52 62 72 65 77 70 64 61 61 59 56 52
34 32 30 28 27 28 26 25 21 17 16 16 16 15 17 23 21 27 27 27 28 22 13 11 16 3 14 36 14 14 10 7 11 4 6 3 6 10 6 10 25 41 57 64 57 64 67 69 67 64 58 56 54 53
34 33 28 33 27 26 26 24 19 14 15 12 16 9 10 14 23 14 17 10 18 21 25 26 49 10 21 16 18 12 14 6 6 3 15 7 8 52 59 33 52 54 41 62 69 60 64 65 67 62 58 52 50 50
35 33 31 30 28 24 23 20 17 13 14 25 14 12 12 7 13 9 12 12 12 11 20 36 46 20 17 7 3 9 7 7 8 10 5 6 6 25 25 41 26 38 44 57 55 58 58 64 65 60 54 49 48 47
31 30 30 29 25 22 20 17 17 18 15 14 10 11 7 8 12 9 7 11 15 12 17 23 25 25 12 3 5 7 5 4 10 24 11 15 8 42 57 46 34 42 51 49 52 53 51 51 51 53 52 50 48 45
35 31 29 28 25 21 19 18 21 23 26 18 8 7 11 13 8 10 13 9 10 13 17 15 10 12 10 16 9 4 4 9 12 6 8 7 46 32 41 16 28 37 44 46 56 49 46 46 47 49 51 50 49 45
31 31 30 28 25 21 18 18 19 17 12 9 12 6 9 11 13 13 16 7 16 26 19 20 18 10 9 5 8 8 8 10 8 7 3 4 39 45 27 23 32 33 39 41 46 51 49 47 49 49 50 51 49 47
33 33 36 32 25 21 18 17 18 19 9 10 8 9 14 24 17 14 20 12 17 17 43 24 22 16 7 6 6 4 6 9 9 8 10 21 13 12 24 36 31 33 38 39 48 50 51 50 51 50 51 49 46 45
29 29 31 26 22 18 17 16 17 23 8 9 12 10 25 20 22 23 26 27 6 24 36 24 4 5 8 11 11 10 13 10 7 6 14 12 8 7 17 28 34 36 37 43 48 52 53 52 52 51 49 46 44 42
26 15 16 16 20 21 21 24 19 15 13 10 12 23 32 28 24 12 18 23 15 23 15 6 9 13 8 10 10 9 10 7 16 34 20 11 11 13 22 27 34 39 42 46 50 54 55 53 53 50 47 43 42 40
33 21 22 13 20 20 18 22 12 14 18 20 15 23 30 31 28 20 11 19 27 20 9 6 8 13 11 6 11 12 25 15 10 9 9 2 7 14 20 30 35 42 46 50 55 56 56 56 53 51 46 42 41 36
25 24 17 24 29 19 13 16 17 9 26 29 39 41 31 26 33 29 20 16 28 18 10 10 11 9 4 15 14 16 25 21 12 16 12 5 9 16 20 21 34 37 44 51 55 56 54 53 49 50 45 42 38 38
29 31 17 34 35 12 9 10 14 13 14 20 34 42 44 44 36 29 30 33 30 19 13 8 14 7 10 30 20 15 25 22 29 47 24 10 9 19 25 30 28 39 43 46 50 48 51 46 41 42 41 43 39 39
22 21 23 31 29 19 11 8 14 15 18 33 30 29 35 34 37 41 35 35 29 11 12 30 36 31 9 6 25 18 10 33 45 29 21 7 5 16 28 30 41 48 46 51 52 49 52 48 49 43 40 39 34 33
23 29 22 29 13 13 14 16 10 8 15 25 22 28 31 32 37 40 41 43 34 34 31 28 31 27 23 23 28 26 26 17 16 11 8 2 9 11 24 34 43 52 52 58 56 55 49 50 53 43 38 36 34 31
30 31 16 18 14 10 14 18 13 16 9 9 20 29 22 30 40 37 42 45 49 45 41 39 38 31 29 33 24 28 14 15 18 12 2 6 8 13 22 33 39 47 55 60 51 51 43 52 47 41 38 38 34 31
23 17 14 16 24 9 11 11 10 18 19 23 19 21 22 33 37 38 27 44 48 48 48 46 40 36 31 28 28 26 21 21 20 12 10 9 10 9 28 20 28 44 39 57 55 46 52 45 46 42 38 35 34 35
8 10 8 10 13 13 11 15 25 15 19 24 29 24 15 21 21 27 26 38 45 47 51 47 46 44 37 37 35 30 24 22 18 21 16 16 14 15 24 29 28 33 45 34 37 36 39 38 33 31 31 31 35 35
9 15 16 19 12 14 14 12 15 27 25 31 15 31 39 24 31 14 22 47 44 45 46 46 44 44 44 36 33 11 20 21 17 24 24 26 21 23 28 35 41 42 34 35 39 54 49 49 44 32 27 31 35 35
11 15 22 24 20 20 11 21 22 9 15 11 17 27 27 28 22 27 50 49 49 44 42 46 41 33 35 30 19 22 16 11 13 13 20 24 22 18 29 40 39 39 37 32 37 44 50 43 36 36 34 33 34 35
19 15 21 35 34 28 20 9 8 11 14 24 33 26 9 12 20 34 30 44 43 49 43 38 26 27 28 24 26 31 26 19 20 14 11 14 18 30 24 24 32 36 41 46 48 50 44 42 36 36 37 34 32 37
17 20 15 14 17 19 21 16 18 30 34 35 22 27 24 38 14 30 31 27 39 38 35 25 31 12 29 32 25 26 29 21 21 21 19 18 22 23 23 31 27 27 45 52 38 38 42 40 39 39 36 34 30 29
18 35 19 16 12 16 23 33 30 40 51 53 43 39 35 22 20 44 33 21 36 31 31 28 15 41 28 25 20 25 25 23 24 28 27 24 24 23 28 33 28 36 41 37 29 30 36 41 41 39 34 31 31 32
12 25 11 17 12 28 44 46 55 50 42 41 43 38 23 16 21 19 15 9 21 23 18 28 32 32 33 26 24 20 20 18 17 19 27 28 36 29 28 29 27 35 41 41 41 47 46 49 45 39 36 37 33 31
27 23 12 8 7 14 10 12 16 5 20 43 32 47 32 7 3 5 13 18 12 29 29 24 23 35 32 29 24 10 17 5 9 14 16 31 28 21 22 18 25 34 31 30 30 28 40 42 47 52 45 34 37 37
11 20 21 11 1 2 3 4 6 9 13 14 17 15 20 9 3 5 30 21 17 21 28 29 28 29 29 23 17 20 23 18 14 16 20 21 21 19 10 22 30 31 26 25 30 29 37 40 41 38 36 34 37 41
Wind_Direction_500mb
277 268 272 275 278 283 287 292 301 309 317 314 311 293 263 218 207 213 242 248 242 253 272 278 274 280 274 282 279 305 320 249 226 251 256 268 276 283 273 187 191 194 207 219 242 205 29 289 48 84 109 116 126 126
265 263 271 274 278 282 286 289 294 302 310 309 294 292 249 230 226 225 246 249 251 254 265 283 283 269 255 258 267 272 286 301 294 274 238 344 304 328 322 194 174 201 209 205 354 95 139 192 142 117 128 120 120 120
261 262 269 273 277 282 284 288 291 297 305 301 284 276 259 236 230 228 223 255 261 277 294 282 274 306 273 254 242 239 264 242 303 346 353 17 278 347 287 301 170 208 193 166 128 125 120 115 125 130 131 124 123 126
261 262 265 272 277 278 281 287 288 291 299 286 273 274 255 246 231 228 219 245 262 281 274 287 284 293 278 250 240 238 252 270 286 291 295 307 333 176 256 305 314 234 187 179 135 132 128 129 137 130 124 121 126 132
263 260 264 269 271 274 280 283 285 288 287 273 274 254 240 228 224 235 253 250 261 257 287 297 297 311 297 244 234 242 245 250 260 252 254 234 179 213 268 287 255 269 173 160 175 162 150 149 137 136 135 139 139 139
259 257 259 265 269 274 280 281 283 289 281 278 279 248 235 229 230 259 301 249 256 248 276 302 306 311 319 283 248 227 217 219 216 205 253 216 178 58 291 251 251 293 180 148 140 176 143 138 141 142 141 140 140 140
256 258 257 262 266 272 277 278 279 287 279 287 280 246 235 232 228 218 232 214 151 295 277 274 269 349 18 314 259 230 218 217 207 233 238 215 99 228 235 256 259 291 284 135 143 136 136 146 142 141 139 138 137 138
256 258 255 258 264 272 275 274 274 283 268 272 278 245 234 227 241 249 233 252 290 274 251 266 246 165 198 201 240 224 222 224 209 219 229 1 312 210 243 182 212 241 123 130 140 144 141 140 138 139 139 141 140 142
252 252 250 256 264 270 270 265 266 279 251 256 252 228 210 227 251 257 231 245 239 248 287 259 272 242 244 234 175 188 230 253 214 190 104 102 231 246 70 356 309 150 133 137 136 137 141 141 143 144 146 148 146 149
250 250 252 249 261 265 266 259 259 262 254 207 196 184 233 231 242 203 192 213 214 217 222 260 273 214 253 205 210 198 207 249 215 257 134 140 256 279 302 253 192 147 149 141 139 146 150 148 150 152 153 153 154 155
248 245 244 247 252 256 258 254 249 246 215 182 196 224 248 183 210 227 220 208 214 249 222 237 239 259 228 159 319 259 305 292 225 186 204 191 191 260 293 291 159 141 142 145 150 152 153 149 151 153 155 156 157 159
235 236 239 240 242 247 250 250 235 218 204 206 248 245 232 221 224 217 218 222 207 225 257 220 231 253 222 290 101 169 179 345 266 162 227 178 200 272 254 187 149 147 147 145 150 151 151 151 154 156 155 155 157 160
228 231 235 238 240 245 248 245 234 227 234 223 233 244 204 194 237 221 208 213 200 238 222 221 227 235 205 172 198 196 279 259 291 179 268 146 168 199 252 172 155 156 157 143 146 149 150 155 156 157 152 152 154 157
227 229 232 236 239 245 247 244 232 225 213 223 203 233 227 209 220 207 248 298 282 291 280 233 249 214 182 5 250 208 215 287 260 240 161 19 162 172 176 184 170 171 160 154 152 151 155 162 157 154 152 154 155 158
229 232 231 231 239 241 240 234 215 198 218 227 234 227 233 246 263 256 283 271 276 287 289 270 258 208 56 345 301 217 5 269 238 237 75 40 331 160 179 163 170 178 171 160 161 159 161 159 156 150 152 154 158 161
224 235 239 237 230 231 225 203 198 198 230 235 234 255 255 277 265 262 264 276 322 289 294 270 179 286 188 164 246 224 181 245 96 55 345 4 358 223 185 166 174 179 172 165 160 157 158 157 154 151 151 157 161 166
214 213 238 214 218 214 206 191 191 198 220 227 233 243 256 278 282 288 308 301 288 280 231 288 220 210 221 200 200 241 323 102 127 93 359 321 221 185 173 177 173 169 166 151 153 157 157 158 153 153 158 165 166 171
229 232 218 181 190 193 198 212 211 221 234 214 230 244 231 246 262 270 275 300 298 309 244 275 300 203 227 236 210 49 27 32 10 34 318 96 176 166 173 174 171 161 151 156 159 157 156 156 157 160 161 167 165 171
217 215 209 179 178 192 202 219 231 253 229 232 233 248 253 244 246 253 249 278 286 305 307 248 240 261 255 351 36 51 6 18 78 268 246 146 159 166 166 185 140 152 156 159 159 157 157 162 168 164 167 173 174 176
213 209 200 173 186 212 224 233 218 245 259 252 239 244 238 233 242 243 241 240 238 236 251 240 259 18 19 56 32 24 19 3 335 290 132 117 147 171 171 169 164 158 160 159 158 164 165 167 173 167 177 179 178 179
212 204 179 174 201 240 252 239 219 260 268 271 259 254 244 248 253 246 237 240 216 227 250 256 269 283 318 325 251 19 259 275 282 342 16 355 157 189 193 183 179 168 170 169 173 174 169 181 176 176 182 180 182 183
201 187 168 184 204 230 250 231 241 268 249 252 253 243 251 242 241 244 245 248 227 227 236 246 252 267 292 281 266 249 260 250 271 297 3 96 169 204 199 183 175 176 182 178 182 175 180 187 172 171 179 182 181 182
163 169 177 185 213 238 259 232 231 234 255 271 226 231 232 237 250 242 234 241 247 245 245 248 255 256 268 278 274 281 202 247 266 256 148 212 190 181 187 189 192 197 184 178 172 169 179 172 170 172 175 181 180 181
165 185 196 201 203 236 222 213 225 244 253 239 249 260 242 232 235 228 237 244 241 237 238 238 246 252 252 245 254 257 245 225 237 191 179 194 172 194 194 181 188 187 173 149 158 159 162 162 169 168 175 181 183 181
170 221 207 249 218 214 227 225 209 219 231 240 247 247 257 236 241 246 242 232 238 230 229 227 228 232 240 249 238 227 229 213 220 192 180 188 175 193 195 187 176 171 182 176 136 145 141 151 163 174 181 188 188 187
217 215 203 202 220 206 201 240 226 229 232 239 241 244 243 251 250 253 255 240 229 224 221 222 220 219 224 230 236 221 219 210 224 217 182 192 176 178 184 187 181 183 192 200 208 207 204 202 176 179 190 196 195 193
228 230 213 219 224 221 241 252 270 271 257 228 233 233 241 237 239 243 249 237 230 228 219 222 224 218 229 213 204 229 266 248 234 183 198 187 179 189 181 186 193 201 198 191 191 184 182 170 177 185 196 199 198 195
229 241 231 225 220 227 244 247 240 241 235 239 240 219 214 220 228 259 257 222 226 216 222 209 216 211 202 202 172 156 172 177 189 158 156 170 182 203 180 170 189 216 193 176 174 166 167 166 167 193 195 195 199 199
225 219 211 231 214 208 214 205 227 233 236 248 241 219 226 246 281 260 298 213 196 181 186 182 192 172 198 225 198 183 174 166 156 158 162 163 172 157 166 187 187 166 174 176 175 165 177 193 196 195 195 197 199 203
232 201 201 212 206 218 220 205 233 234 233 239 250 280 243 245 253 251 272 211 188 177 183 176 184 187 203 171 166 183 183 202 195 172 163 186 169 168 177 181 170 173 173 174 192 206 197 192 193 194 194 198 201 208
210 182 217 215 232 238 233 236 249 257 242 238 234 241 242 233 231 247 221 227 201 207 180 148 150 153 142 147 152 159 172 182 178 203 185 167 156 150 173 165 178 185 188 198 201 202 197 202 199 194 200 198 199 198
187 190 202 214 239 264 269 22 8 9 202 198 226 215 241 151 120 219 207 173 180 162 144 129 156 140 139 140 141 147 162 160 128 114 98 123 126 138 160 170 177 177 178 188 203 198 200 201 205 204 208 211 218 233
319 153 149 149 9 352 74 121 39 19 359 14 45 134 132 114 214 198 183 157 136 141 135 136 127 123 123 128 143 146 144 145 149 136 128 131 147 160 168 166 163 175 184 198 197 201 203 205 213 218 231 233 233 239
Wind_Speed_850mb
37 33 32 29 28 27 28 27 24 27 28 25 20 17 12 20 28 28 27 32 31 15 51 56 30 39 37 36 14 35 24 21 15 18 16 22 10 10 21 36 40 30 24 25 26 8 8 68 26 9 20 45 48 57
33 30 30 29 29 27 28 27 24 25 26 22 18 17 15 20 22 24 27 27 26 34 49 66 67 57 65 62 56 26 33 54 13 8 13 6 11 11 23 25 38 30 28 16 7 3 61 82 25 29 36 53 54 58
31 29 30 29 28 28 28 26 26 24 24 21 19 17 18 20 22 25 18 18 20 28 55 31 28 26 22 34 44 37 28 14 15 15 9 4 7 9 10 19 32 29 47 14 15 24 31 41 43 47 40 48 63 66
33 31 30 29 29 29 29 26 26 24 23 20 17 14 10 16 23 25 28 22 23 18 12 22 23 49 33 30 39 56 68 53 35 17 6 3 2 1 6 17 31 23 38 24 16 29 37 45 44 54 56 59 58 53
37 35 31 30 30 28 27 27 26 24 22 19 20 17 15 16 17 17 25 29 30 23 13 37 48 28 19 29 34 41 46 44 30 10 9 7 6 5 8 18 31 35 29 20 18 51 20 47 55 57 58 56 56 58
37 35 31 32 30 28 26 26 25 24 21 20 21 20 19 24 21 14 11 18 30 24 14 10 19 18 26 21 31 33 35 25 14 7 12 9 11 7 5 9 29 65 50 26 22 53 58 64 60 56 60 56 53 53
36 34 32 31 29 29 27 26 23 22 19 18 17 18 20 23 30 28 10 3 4 11 12 13 10 14 16 9 6 20 23 15 15 11 13 6 9 6 9 12 28 87 7 66 80 80 60 63 64 60 58 55 53 50
35 33 31 29 28 28 27 26 23 20 16 18 18 18 18 22 28 42 44 20 11 18 16 8 7 9 23 12 9 10 12 14 13 10 5 7 13 19 12 24 76 74 52 62 72 65 77 70 64 61 61 59 56 52
34 32 30 28 27 28 26 25 21 17 16 16 16 15 17 23 21 27 27 27 28 22 13 11 16 3 14 36 14 14 10 7 11 4 6 3 6 10 6 10 25 41 57 64 57 64 67 69 67 64 58 56 54 53
34 33 28 33 27 26 26 24 19 14 15 12 16 9 10 14 23 14 17 10 18 21 25 26 49 10 21 16 18 12 14 6 6 3 15 7 8 52 59 33 52 54 41 62 69 60 64 65 67 62 58 52 50 50
35 33 31 30 28 24 23 20 17 13 14 25 14 12 12 7 13 9 12 12 12 11 20 36 46 20 17 7 3 9 7 7 8 10 5 6 6 25 25 41 26 38 44 57 55 58 58 64 65 60 54 49 48 47
31 30 30 29 25 22 20 17 17 18 15 14 10 11 7 8 12 9 7 11 15 12 17 23 25 25 12 3 5 7 5 4 10 24 11 15 8 42 57 46 34 42 51 49 52 53 51 51 51 53 52 50 48 45
35 31 29 28 25 21 19 18 21 23 26 18 8 7 11 13 8 10 13 9 10 13 17 15 10 12 10 16 9 4 4 9 12 6 8 7 46 32 41 16 28 37 44 46 56 49 46 46 47 49 51 50 49 45
31 31 30 28 25 21 18 18 19 17 12 9 12 6 9 11 13 13 16 7 16 26 19 20 18 10 9 5 8 8 8 10 8 7 3 4 39 45 27 23 32 33 39 41 46 51 49 47 49 49 50 51 49 47
33 33 36 32 25 21 18 17 18 19 9 10 8 9 14 24 17 14 20 12 17 17 43 24 22 16 7 6 6 4 6 9 9 8 10 21 13 12 24 36 31 33 38 39 48 50 51 50 51 50 51 49 46 45
29 29 31 26 22 18 17 16 17 23 8 9 12 10 25 20 22 23 26 27 6 24 36 24 4 5 8 11 11 10 13 10 7 6 14 12 8 7 17 28 34 36 37 43 48 52 53 52 52 51 49 46 44 42
26 15 16 16 20 21 21 24 19 15 13 10 12 23 32 28 24 12 18 23 15 23 15 6 9 13 8 10 10 9 10 7 16 34 20 11 11 13 22 27 34 39 42 46 50 54 55 53 53 50 47 43 42 40
33 21 22 13 20 20 18 22 12 14 18 20 15 23 30 31 28 20 11 19 27 20 9 6 8 13 11 6 11 12 25 15 10 9 9 2 7 14 20 30 35 42 46 50 55 56 56 56 53 51 46 42 41 36
25 24 17 24 29 19 13 16 17 9 26 29 39 41 31 26 33 29 20 16 28 18 10 10 11 9 4 15 14 16 25 21 12 16 12 5 9 16 20 21 34 37 44 51 55 56 54 53 49 50 45 42 38 38
29 31 17 34 35 12 9 10 14 13 14 20 34 42 44 44 36 29 30 33 30 19 13 8 14 7 10 30 20 15 25 22 29 47 24 10 9 19 25 30 28 39 43 46 50 48 51 46 41 42 41 43 39 39
22 21 23 31 29 19 11 8 14 15 18 33 30 29 35 34 37 41 35 35 29 11 12 30 36 31 9 6 25 18 10 33 45 29 21 7 5 16 28 30 41 48 46 51 52 49 52 48 49 43 40 39 34 33
23 29 22 29 13 13 14 16 10 8 15 25 22 28 31 32 37 40 41 43 34 34 31 28 31 27 23 23 28 26 26 17 16 11 8 2 9 11 24 34 43 52 52 58 56 55 49 50 53 43 38 36 34 31
30 31 16 18 14 10 14 18 13 16 9 9 20 29 22 30 40 37 42 45 49 45 41 39 38 31 29 33 24 28 14 15 18 12 2 6 8 13 22 33 39 47 55 60 51 51 43 52 47 41 38 38 34 31
23 17 14 16 24 9 11 11 10 18 19 23 19 21 22 33 37 38 27 44 48 48 48 46 40 36 31 28 28 26 21 21 20 12 10 9 10 9 28 20 28 44 39 57 55 46 52 45 46 42 38 35 34 35
8 10 8 10 13 13 11 15 25 15 19 24 29 24 15 21 21 27 26 38 45 47 51 47 46 44 37 37 35 30 24 22 18 21 16 16 14 15 24 29 28 33 45 34 37 36 39 38 33 31 31 31 35 35
9 15 16 19 12 14 14 12 15 27 25 31 15 31 39 24 31 14 22 47 44 45 46 46 44 44 44 36 33 11 20 21 17 24 24 26 21 23 28 35 41 42 34 35 39 54 49 49 44 32 27 31 35 35
11 15 22 24 20 20 11 21 22 9 15 11 17 27 27 28 22 27 50 49 49 44 42 46 41 33 35 30 19 22 16 11 13 13 20 24 22 18 29 40 39 39 37 32 37 44 50 43 36 36 34 33 34 35
19 15 21 35 34 28 20 9 8 11 14 24 33 26 9 12 20 34 30 44 43 49 43 38 26 27 28 24 26 31 26 19 20 14 11 14 18 30 24 24 32 36 41 46 48 50 44 42 36 36 37 34 32 37
17 20 15 14 17 19 21 16 18 30 34 35 22 27 24 38 14 30 31 27 39 38 35 25 31 12 29 32 25 26 29 21 21 21 19 18 22 23 23 31 27 27 45 52 38 38 42 40 39 39 36 34 30 29
18 35 19 16 12 16 23 33 30 40 51 53 43 39 35 22 20 44 33 21 36 31 31 28 15 41 28 25 20 25 25 23 24 28 27 24 24 23 28 33 28 36 41 37 29 30 36 41 41 39 34 31 31 32
12 25 11 17 12 28 44 46 55 50 42 41 43 38 23 16 21 19 15 9 21 23 18 28 32 32 33 26 24 20 20 18 17 19 27 28 36 29 28 29 27 35 41 41 41 47 46 49 45 39 36 37 33 31
27 23 12 8 7 14 10 12 16 5 20 43 32 47 32 7 3 5 13 18 12 29 29 24 23 35 32 29 24 10 17 5 9 14 16 31 28 21 22 18 25 34 31 30 30 28 40 42 47 52 45 34 37 37
11 20 21 11 1 2 3 4 6 9 13 14 17 15 20 9 3 5 30 21 17 21 28 29 28 29 29 23 17 20 23 18 14 16 20 21 21 19 10 22 30 31 26 25 30 29 37 40 41 38 36 34 37 41
Wind_Direction_850mb
277 268 272 275 278 283 287 292 301 309 317 314 311 293 263 218 207 213 242 248 242 253 272 278 274 280 274 282 279 305 320 249 226 251 256 268 276 283 273 187 191 194 207 219 242 205 29 289 48 84 109 116 126 126
265 263 271 274 278 282 286 289 294 302 310 309 294 292 249 230 226 225 246 249 251 254 265 283 283 269 255 258 267 272 286 301 294 274 238 344 304 328 322 194 174 201 209 205 354 95 139 192 142 117 128 120 120 120
261 262 269 273 277 282 284 288 291 297 305 301 284 276 259 236 230 228 223 255 261 277 294 282 274 306 273 254 242 239 264 242 303 346 353 17 278 347 287 301 170 208 193 166 128 125 120 115 125 130 131 124 123 126
261 262 265 272 277 278 281 287 288 291 299 286 273 274 255 246 231 228 219 245 262 281 274 287 284 293 278 250 240 238 252 270 286 291 295 307 333 176 256 305 314 234 187 179 135 132 128 129 137 130 124 121 126 132
263 260 264 269 271 274 280 283 285 288 287 273 274 254 240 228 224 235 253 250 261 257 287 297 297 311 297 244 234 242 245 250 260 252 254 234 179 213 268 287 255 269 173 160 175 162 150 149 137 136 135 139 139 139
259 257 259 265 269 274 280 281 283 289 281 278 279 248 235 229 230 259 301 249 256 248 276 302 306 311 319 283 248 227 217 219 216 205 253 216 178 58 291 251 251 293 180 148 140 176 143 138 141 142 141 140 140 140
256 258 257 262 266 272 277 278 279 287 279 287 280 246 235 232 228 218 232 214 151 295 277 274 269 349 18 314 259 230 218 217 207 233 238 215 99 228 235 256 259 291 284 135 143 136 136 146 142 141 139 138 137 138
256 258 255 258 264 272 275 274 274 283 268 272 278 245 234 227 241 249 233 252 290 274 251 266 246 165 198 201 240 224 222 224 209 219 229 1 312 210 243 182 212 241 123 130 140 144 141 140 138 139 139 141 140 142
252 252 250 256 264 270 270 265 266 279 251 256 252 228 210 227 251 257 231 245 239 248 287 259 272 242 244 234 175 188 230 253 214 190 104 102 231 246 70 356 309 150 133 137 136 137 141 141 143 144 146 148 146 149
250 250 252 249 261 265 266 259 259 262 254 207 196 184 233 231 242 203 192 213 214 217 222 260 273 214 253 205 210 198 207 249 215 257 134 140 256 279 302 253 192 147 149 141 139 146 150 148 150 152 153 153 154 155
248 245 244 247 252 256 258 254 249 246 215 182 196 224 248 183 210 227 220 208 214 249 222 237 239 259 228 159 319 259 305 292 225 186 204 191 191 260 293 291 159 141 142 145 150 152 153 149 151 153 155 156 157 159
235 236 239 240 242 247 250 250 235 218 204 206 248 245 232 221 224 217 218 222 207 225 257 220 231 253 222 290 101 169 179 345 266 162 227 178 200 272 254 187 149 147 147 145 150 151 151 151 154 156 155 155 157 160
228 231 235 238 240 245 248 245 234 227 234 223 233 244 204 194 237 221 208 213 200 238 222 221 227 235 205 172 198 196 279 259 291 179 268 146 168 199 252 172 155 156 157 143 146 149 150 155 156 157 152 152 154 157
227 229 232 236 239 245 247 244 232 225 213 223 203 233 227 209 220 207 248 298 282 291 280 233 249 214 182 5 250 208 215 287 260 240 161 19 162 172 176 184 170 171 160 154 152 151 155 162 157 154 152 154 155 158
229 232 231 231 239 241 240 234 215 198 218 227 234 227 233 246 263 256 283 271 276 287 289 270 258 208 56 345 301 217 5 269 238 237 75 40 331 160 179 163 170 178 171 160 161 159 161 159 156 150 152 154 158 161
224 235 239 237 230 231 225 203 198 198 230 235 234 255 255 277 265 262 264 276 322 289 294 270 179 286 188 164 246 224 181 245 96 55 345 4 358 223 185 166 174 179 172 165 160 157 158 157 154 151 151 157 161 166
214 213 238 214 218 214 206 191 191 198 220 227 233 243 256 278 282 288 308 301 288 280 231 288 220 210 221 200 200 241 323 102 127 93 359 321 221 185 173 177 173 169 166 151 153 157 157 158 153 153 158 165 166 171
229 232 218 181 190 193 198 212 211 221 234 214 230 244 231 246 262 270 275 300 298 309 244 275 300 203 227 236 210 49 27 32 10 34 318 96 176 166 173 174 171 161 151 156 159 157 156 156 157 160 161 167 165 171
217 215 209 179 178 192 202 219 231 253 229 232 233 248 253 244 246 253 249 278 286 305 307 248 240 261 255 351 36 51 6 18 78 268 246 146 159 166 166 185 140 152 156 159 159 157 157 162 168 164 167 173 174 176
213 209 200 173 186 212 224 233 218 245 259 252 239 244 238 233 242 243 241 240 238 236 251 240 259 18 19 56 32 24 19 3 335 290 132 117 147 171 171 169 164 158 160 159 158 164 165 167 173 167 177 179 178 179
212 204 179 174 201 240 252 239 219 260 268 271 259 254 244 248 253 246 237 240 216 227 250 256 269 283 318 325 251 19 259 275 282 342 16 355 157 189 193 183 179 168 170 169 173 174 169 181 176 176 182 180 182 183
201 187 168 184 204 230 250 231 241 268 249 252 253 243 251 242 241 244 245 248 227 227 236 246 252 267 292 281 266 249 260 250 271 297 3 96 169 204 199 183 175 176 182 178 182 175 180 187 172 171 179 182 181 182
163 169 177 185 213 238 259 232 231 234 255 271 226 231 232 237 250 242 234 241 247 245 245 248 255 256 268 278 274 281 202 247 266 256 148 212 190 181 187 189 192 197 184 178 172 169 179 172 170 172 175 181 180 181
165 185 196 201 203 236 222 213 225 244 253 239 249 260 242 232 235 228 237 244 241 237 238 238 246 252 252 245 254 257 245 225 237 191 179 194 172 194 194 181 188 187 173 149 158 159 162 162 169 168 175 181 183 181
170 221 207 249 218 214 227 225 209 219 231 240 247 247 257 236 241 246 242 232 238 230 229 227 228 232 240 249 238 227 229 213 220 192 180 188 175 193 195 187 176 171 182 176 136 145 141 151 163 174 181 188 188 187
217 215 203 202 220 206 201 240 226 229 232 239 241 244 243 251 250 253 255 240 229 224 221 222 220 219 224 230 236 221 219 210 224 217 182 192 176 178 184 187 181 183 192 200 208 207 204 202 176 179 190 196 195 193
228 230 213 219 224 221 241 252 270 271 257 228 233 233 241 237 239 243 249 237 230 228 219 222 224 218 229 213 204 229 266 248 234 183 198 187 179 189 181 186 193 201 198 191 191 184 182 170 177 185 196 199 198 195
229 241 231 225 220 227 244 247 240 241 235 239 240 219 214 220 228 259 257 222 226 216 222 209 216 211 202 202 172 156 172 177 189 158 156 170 182 203 180 170 189 216 193 176 174 166 167 166 167 193 195 195 199 199
225 219 211 231 214 208 214 205 227 233 236 248 241 219 226 246 281 260 298 213 196 181 186 182 192 172 198 225 198 183 174 166 156 158 162 163 172 157 166 187 187 166 174 176 175 165 177 193 196 195 195 197 199 203
232 201 201 212 206 218 220 205 233 234 233 239 250 280 243 245 253 251 272 211 188 177 183 176 184 187 203 171 166 183 183 202 195 172 163 186 169 168 177 181 170 173 173 174 192 206 197 192 193 194 194 198 201 208
210 182 217 215 232 238 233 236 249 257 242 238 234 241 242 233 231 247 221 227 201 207 180 148 150 153 142 147 152 159 172 182 178 203 185 167 156 150 173 165 178 185 188 198 201 202 197 202 199 194 200 198 199 198
187 190 202 214 239 264 269 22 8 9 202 198 226 215 241 151 120 219 207 173 180 162 144 129 156 140 139 140 141 147 162 160 128 114 98 123 126 138 160 170 177 177 178 188 203 198 200 201 205 204 208 211 218 233
319 153 149 149 9 352 74 121 39 19 359 14 45 134 132 114 214 198 183 157 136 141 135 136 127 123 123 128 143 146 144 145 149 136 128 131 147 160 168 166 163 175 184 198 197 201 203 205 213 218 231 233 233 239